Regional Weather Roundup
Issued by NWS Albany, NY

Home | Current Version | Previous Version | Text Only | Print | Product List | Glossary On
Versions: 1 2 3 4 5 6 7 8 9 10 11 12 13 14 15 16 17 18 19 20 21 22 23 24 25 26 27 28 29 30 31 32 33 34 35 36 37 38 39 40 41 42 43 44 45 46 47 48 49 50
000
ASUS41 KALY 281810
RWRALY

NEW YORK STATE HOURLY WEATHER ROUNDUP
NATIONAL WEATHER SERVICE ALBANY NY
200 PM EDT SAT MAR 28 2015

NOTE: "FAIR" INDICATES FEW OR NO CLOUDS BELOW 12,000 FEET WITH NO
SIGNIFICANT WEATHER AND/OR NO OBSTRUCTIONS TO VISIBILITY.

NYZ032-033-038>043-046>054-057>066-NYZ062>081-281900-
EAST


CITY           SKY/WX    TMP DP  RH WIND       PRES   REMARKS
ALBANY         LGT SNOW  28  20  71 NW10      29.92F WCI  19
GLENS FALLS    CLOUDY    31  15  52 NE14      29.91F WCI  21
POUGHKEEPSIE   CLOUDY    33  23  66 N15G22    29.87S HAZE    WCI  23
NEWBURGH       LGT SNOW  32  27  80 NE12      29.86R WCI  23
MONTGOMERY     LGT SNOW  34  29  82 N9        29.85R WCI  27
WHITE PLAINS   LGT SNOW  31  22  69 NW20      29.82R WCI  19
ISLIP          SNOW      32  28  85 NW16G26   29.79R VSB 1/2 WCI  21
NEW YORK CITY  FLURRIES  34  24  67 N14G22    29.84S WCI  25
CENTRAL PARK   CLOUDY    37  23  56 NE7       29.86S WCI  32
$$

NYZ005>009-017-018-044>046-055-056-281900-
CENTRAL


CITY           SKY/WX    TMP DP  RH WIND       PRES   REMARKS
FULTON         MOSUNNY   21   7  54 NW20G26   30.08S WCI   6
SYRACUSE       PTSUNNY   23   9  55 NW17      30.06R WCI   9
ROME           CLOUDY    26  11  52 NW9       30.01S WCI  17
ELMIRA         PTSUNNY   25  10  53 N17G24    30.01F WCI  12
BINGHAMTON     CLOUDY    20   8  60 NW20      29.91S WCI   4
MONTICELLO     CLOUDY    28  18  64 NW16G26   29.85S WCI  17
$$

NYZ026>034-041>043-281900-
NORTH


CITY           SKY/WX    TMP DP  RH WIND       PRES   REMARKS
WATERTOWN      SUNNY     24   7  48 NW8       30.08S WCI  15
FORT DRUM      NOT AVBL
MASSENA        SUNNY     23   0  36 NW6       30.08F WCI  16
SARANAC LAKE   LGT SNOW  18  10  71 N10       29.88F WCI   6
PLATTSBURGH    PTSUNNY   26  13  57 N16       29.99F WCI  14
$$

NYZ001>004-010>016-019>021-281900-
WEST


CITY           SKY/WX    TMP DP  RH WIND       PRES   REMARKS
NIAGARA FALLS  MOSUNNY   24   7  48 N14G24    30.16S WCI  12
BUFFALO        MOSUNNY   22   5  48 N14       30.14F WCI   9
DUNKIRK        SUNNY     19   4  51 NW10      30.19S WCI   7
JAMESTOWN      SUNNY     16   3  57 N12G20    30.08R WCI   3
WELLSVILLE     PTSUNNY   20   5  52 NW16G24   29.98S WCI   6
ROCHESTER      MOSUNNY   22   9  57 NW7G16    30.13S WCI  13
PENN YAN       MOSUNNY   22   9  57 NW16G25   30.06R WCI   8
$$

             KEY
       WCI = WIND CHILL INDEX
       VSB = VISIBILITY
       HX  = HEAT INDEX
$$


USA.gov is the U.S. government's official web portal to all federal, state and local government web resources and services.